Regional Weather Roundup
Issued by NWS

Home | Current Version | Previous Version | Graphics & Text | Print | Product List | Glossary On
Versions: 1 2 3 4 5 6 7 8 9 10 11 12 13 14 15 16 17 18 19 20 21 22 23 24 25 26 27 28 29 30 31 32 33 34 35 36 37 38 39 40 41 42 43 44 45 46 47 48 49 50
000
ASUS43 KFSD 170710
RWRSD

WEATHER ROUNDUP FOR SOUTH DAKOTA
NATIONAL WEATHER SERVICE SIOUX FALLS SD
100 AM CST WED JAN 17 2018

NOTE: "FAIR" INDICATES FEW OR NO CLOUDS BELOW 12,000 FEET WITH NO
SIGNIFICANT WEATHER AND/OR OBSTRUCTIONS TO VISIBILITY.


SDZ001>005-009-010-012>017-170800-
NORTHWEST AND NORTH CENTRAL SOUTH DAKOTA

CITY           SKY/WX    TMP DP  RH WIND       PRES   REMARKS
BUFFALO          N/A     11   0  61 SW3       30.08S
FAITH            N/A      7   2  80 S17       30.16F WCI -12
MOBRIDGE       CLEAR      8   1  73 SE12      30.21F WCI  -7
$$

SDZ012>016-024>037-041>051-057-063-072>074-170800-
SOUTHWEST AND SOUTH CENTRAL SOUTH DAKOTA

CITY           SKY/WX    TMP DP  RH WIND       PRES   REMARKS
RAPID CTY ARPT PTCLDY    13   4  67 E3        30.16F
PIERRE         CLEAR      4   1  88 E3        30.28F
CUSTER         PTCLDY    23 -19  15 W5        30.15S WCI  17
ELLSWORTH AFB  PTCLDY    13   1  60 SW3       30.14F
PHILIP         CLEAR      7   2  80 W3        30.22F
PINE RIDGE     CLEAR     18   6  59 SW7       30.23F WCI   9
SPEARFISH        N/A     27   3  36 SW3       30.14F
WINNER         FAIR      17   5  59 SW17      30.29F WCI   1
$$

SDZ004>011-016>023-039-040-170800-
NORTHEAST SOUTH DAKOTA

CITY           SKY/WX    TMP DP  RH WIND       PRES   REMARKS
ABERDEEN       CLEAR      3  -3  76 S12       30.33F WCI -13
WATERTOWN      CLOUDY     2  -2  83 S10       30.34F WCI -14
BROOKINGS      CLOUDY     1  -4  79 S13       30.39F WCI -17
SISSETON         N/A     12   0  58 S14       30.31F WCI  -3
$$

SDZ017-020-022-023-036>040-048>070-170800-
SOUTHEAST SOUTH DAKOTA

CITY           SKY/WX    TMP DP  RH WIND       PRES   REMARKS
SIOUX FALLS    CLEAR      5  -1  76 S12       30.45F WCI -11
HURON          CLEAR      2  -3  80 S12       30.38F WCI -15
CHAMBERLAIN    CLEAR     10   3  74 S7        30.33F WCI  -2
MITCHELL       CLEAR      5  -2  72 S12       30.42F WCI -11
YANKTON        CLOUDY     4  -1  80 S7        30.48F WCI  -8
$$

ABBREVIATIONS USED IN REMARKS
   TC - TEMPERATURE IN CELSIUS
  WCI - WIND CHILL INDEX
   HX - HEAT INDEX
  VSB - VISIBILITY





USA.gov is the U.S. government's official web portal to all federal, state and local government web resources and services.